ANA474 ROAH-RJTT

Flight info

Callsign ANA474
Flight time 1h 55m
Altitude 39000
Route AMAMI Y574 SHIBK Y57 SUKBO Y571 BILLY Y21 AKSEL
Aircraft B77W/H-SDE1E2E3FGHIJ2J3J5M1P2RWY/LB1D1

Departure

Time 2026-04-21 13:09
Airport Naha International Airport (ROAH)

Arrival

Time 2026-04-21 15:04
Airport Tokyo Haneda International Airport (RJTT)
Time Latitude Longitude Altitude Speed Heading
2026-04-21 12:46 26.20839 127.64913 31 ft 0 kts 157°
2026-04-21 12:54 26.20841 127.64913 26 ft 1 kts 157°
2026-04-21 12:55 26.20856 127.64905 31 ft 3 kts 157°
2026-04-21 12:55 26.20874 127.64897 31 ft 3 kts 161°
2026-04-21 12:55 26.20894 127.64891 30 ft 3 kts 172°
2026-04-21 12:55 26.20914 127.64889 30 ft 3 kts 178°
2026-04-21 12:56 26.20934 127.64888 29 ft 3 kts 177°
2026-04-21 12:56 26.20955 127.64887 30 ft 3 kts 177°
2026-04-21 12:56 26.20975 127.64886 28 ft 3 kts 177°
2026-04-21 12:56 26.20995 127.64885 29 ft 3 kts 177°
2026-04-21 12:57 26.21016 127.64884 30 ft 3 kts 178°
2026-04-21 12:57 26.21033 127.64883 29 ft 1 kts 178°
2026-04-21 12:57 26.21036 127.64883 29 ft 0 kts 178°
2026-04-21 13:00 26.21031 127.64883 29 ft 5 kts 178°
2026-04-21 13:00 26.20956 127.64881 27 ft 14 kts 198°
2026-04-21 13:00 26.20911 127.64793 25 ft 14 kts 253°
2026-04-21 13:01 26.20838 127.64736 22 ft 14 kts 187°
2026-04-21 13:01 26.20742 127.64739 22 ft 14 kts 176°
2026-04-21 13:01 26.20647 127.64744 21 ft 14 kts 178°
2026-04-21 13:01 26.20553 127.64748 23 ft 14 kts 177°
2026-04-21 13:02 26.20453 127.64753 24 ft 19 kts 178°
2026-04-21 13:02 26.20278 127.64762 24 ft 25 kts 177°
2026-04-21 13:02 26.19938 127.64778 23 ft 23 kts 178°
2026-04-21 13:03 26.19776 127.64785 22 ft 23 kts 177°
2026-04-21 13:03 26.19615 127.64793 24 ft 23 kts 178°
2026-04-21 13:03 26.19453 127.64801 26 ft 23 kts 177°
2026-04-21 13:03 26.19292 127.64809 23 ft 23 kts 177°
2026-04-21 13:04 26.19131 127.64815 22 ft 23 kts 178°
2026-04-21 13:04 26.18973 127.64823 23 ft 20 kts 177°
2026-04-21 13:04 26.18847 127.64829 23 ft 17 kts 178°
2026-04-21 13:04 26.18729 127.64834 22 ft 17 kts 177°
2026-04-21 13:05 26.18612 127.64840 24 ft 17 kts 178°
2026-04-21 13:05 26.18494 127.64845 23 ft 17 kts 177°
2026-04-21 13:05 26.18376 127.64852 23 ft 17 kts 177°
2026-04-21 13:05 26.18268 127.64844 23 ft 13 kts 208°
2026-04-21 13:06 26.18243 127.64752 20 ft 13 kts 266°
2026-04-21 13:06 26.18243 127.64663 20 ft 7 kts 296°
2026-04-21 13:06 26.18278 127.64650 20 ft 1 kts 356°
2026-04-21 13:08 26.18355 127.64645 22 ft 27 kts 357°
2026-04-21 13:08 26.18755 127.64627 24 ft 92 kts 357°
2026-04-21 13:08 26.19612 127.64585 22 ft 152 kts 358°
2026-04-21 13:08 26.20789 127.64511 332 ft 176 kts 358°
2026-04-21 13:09 26.22019 127.64442 1105 ft 177 kts 360°
2026-04-21 13:09 26.23252 127.64400 1917 ft 180 kts
2026-04-21 13:09 26.24587 127.64362 2084 ft 202 kts
2026-04-21 13:09 26.26020 127.64042 2164 ft 223 kts 334°
2026-04-21 13:10 26.27392 127.63124 2326 ft 239 kts 330°
2026-04-21 13:10 26.28890 127.62157 2588 ft 256 kts 332°
2026-04-21 13:10 26.30464 127.61164 3100 ft 264 kts 332°
2026-04-21 13:10 26.32077 127.60147 3706 ft 268 kts 331°
2026-04-21 13:11 26.33706 127.59118 4340 ft 270 kts 331°
2026-04-21 13:11 26.35348 127.58083 4943 ft 273 kts 332°
2026-04-21 13:11 26.37015 127.57033 5549 ft 276 kts 332°
2026-04-21 13:11 26.38691 127.55978 6175 ft 278 kts 331°
2026-04-21 13:12 26.40376 127.54916 6799 ft 279 kts 330°
2026-04-21 13:12 26.42044 127.53868 7376 ft 278 kts 331°
2026-04-21 13:12 26.43913 127.53217 7806 ft 285 kts 359°
2026-04-21 13:12 26.45852 127.53666 8280 ft 287 kts 19°
2026-04-21 13:13 26.47730 127.54450 8661 ft 296 kts 19°
2026-04-21 13:13 26.49661 127.55252 9310 ft 297 kts 19°
2026-04-21 13:13 26.51606 127.56064 9913 ft 300 kts 18°
2026-04-21 13:13 26.53584 127.56890 10337 ft 310 kts 18°
2026-04-21 13:14 26.55675 127.57762 10471 ft 332 kts 18°
2026-04-21 13:14 26.57905 127.58691 10720 ft 350 kts 18°
2026-04-21 13:14 26.60225 127.59658 11243 ft 361 kts 18°
2026-04-21 13:14 26.62605 127.60650 11893 ft 368 kts 18°
2026-04-21 13:15 26.65016 127.61655 12678 ft 373 kts 18°
2026-04-21 13:15 26.67467 127.62675 13461 ft 378 kts 18°
2026-04-21 13:15 26.69952 127.63710 14216 ft 384 kts 18°
2026-04-21 13:15 26.72471 127.64758 14845 ft 389 kts 18°
2026-04-21 13:16 26.75025 127.65821 15567 ft 393 kts 18°
2026-04-21 13:16 26.77605 127.66895 16264 ft 398 kts 18°
2026-04-21 13:16 26.80214 127.67982 16942 ft 403 kts 18°
2026-04-21 13:16 26.82855 127.69082 17628 ft 407 kts 18°
2026-04-21 13:17 26.85522 127.70194 18295 ft 412 kts 18°
2026-04-21 13:17 26.88224 127.71321 18862 ft 416 kts 17°
2026-04-21 13:17 26.90954 127.72460 19439 ft 421 kts 17°
2026-04-21 13:17 26.93706 127.73610 20026 ft 424 kts 17°
2026-04-21 13:18 26.96487 127.74771 20580 ft 428 kts 17°
2026-04-21 13:18 26.99287 127.75942 21156 ft 432 kts 17°
2026-04-21 13:18 27.02114 127.77125 21721 ft 435 kts 17°
2026-04-21 13:18 27.04958 127.78315 22275 ft 439 kts 17°
2026-04-21 13:19 27.07836 127.79520 22842 ft 443 kts 16°
2026-04-21 13:19 27.10735 127.80735 23416 ft 447 kts 16°
2026-04-21 13:19 27.13666 127.81964 23928 ft 450 kts 16°
2026-04-21 13:19 27.16607 127.83198 24450 ft 453 kts 16°
2026-04-21 13:20 27.18546 127.84060 24764 ft 454 kts 21°
2026-04-21 13:20 27.22010 127.86881 25286 ft 468 kts 43°
2026-04-21 13:20 27.24238 127.89580 25642 ft 474 kts 44°
2026-04-21 13:20 27.26496 127.92313 26087 ft 478 kts 44°
2026-04-21 13:21 27.28779 127.95031 26599 ft 479 kts 43°
2026-04-21 13:21 27.31092 127.97741 27082 ft 482 kts 43°
2026-04-21 13:21 27.33432 128.00454 27507 ft 485 kts 43°
2026-04-21 13:21 27.35792 128.03178 27924 ft 488 kts 42°
2026-04-21 13:22 27.38143 128.05890 28332 ft 491 kts 42°
2026-04-21 13:22 27.40564 128.08689 28757 ft 494 kts 42°
2026-04-21 13:22 27.42932 128.11430 29154 ft 496 kts 42°
2026-04-21 13:22 27.45378 128.14264 29566 ft 499 kts 42°
2026-04-21 13:23 27.47732 128.17080 29942 ft 503 kts 45°
2026-04-21 13:23 27.50007 128.20160 30274 ft 507 kts 49°
2026-04-21 13:23 27.52140 128.23272 30529 ft 511 kts 50°
2026-04-21 13:23 27.54278 128.26476 30823 ft 513 kts 50°
2026-04-21 13:24 27.56427 128.29700 31141 ft 514 kts 50°
2026-04-21 13:24 27.58587 128.32905 31460 ft 515 kts 50°
2026-04-21 13:24 27.60779 128.36117 31763 ft 516 kts 50°
2026-04-21 13:24 27.62983 128.39316 32054 ft 518 kts 49°
2026-04-21 13:25 27.65204 128.42523 32290 ft 520 kts 49°
2026-04-21 13:25 27.67436 128.45739 32513 ft 521 kts 49°
2026-04-21 13:25 27.69673 128.48963 32744 ft 523 kts 49°
2026-04-21 13:25 27.71919 128.52205 33004 ft 524 kts 49°
2026-04-21 13:26 27.74155 128.55439 33343 ft 522 kts 49°
2026-04-21 13:26 27.76385 128.58670 33719 ft 520 kts 49°
2026-04-21 13:26 27.78606 128.61891 34085 ft 519 kts 49°
2026-04-21 13:26 27.80815 128.65097 34362 ft 518 kts 49°
2026-04-21 13:27 27.83033 128.68316 34538 ft 520 kts 49°
2026-04-21 13:27 27.85256 128.71546 34733 ft 521 kts 49°
2026-04-21 13:27 27.86760 128.73732 34912 ft 521 kts 49°
2026-04-21 13:27 27.89694 128.78002 35304 ft 519 kts 49°
2026-04-21 13:28 27.91907 128.81226 35604 ft 518 kts 49°
2026-04-21 13:28 27.94115 128.84445 35828 ft 518 kts 49°
2026-04-21 13:28 27.95575 128.86573 35968 ft 518 kts 49°
2026-04-21 13:28 27.97785 128.89799 36197 ft 518 kts 50°
2026-04-21 13:29 28.00742 128.94117 36443 ft 520 kts 50°
2026-04-21 13:29 28.02207 128.96258 36573 ft 519 kts 50°
2026-04-21 13:29 28.05162 129.00580 36920 ft 518 kts 50°
2026-04-21 13:29 28.06621 129.02716 37080 ft 518 kts 50°
2026-04-21 13:30 28.08825 129.05945 37311 ft 518 kts 50°
2026-04-21 13:30 28.11026 129.09170 37495 ft 518 kts 50°
2026-04-21 13:30 28.13225 129.12397 37690 ft 518 kts 50°
2026-04-21 13:30 28.15429 129.15634 37848 ft 519 kts 50°
2026-04-21 13:31 28.17632 129.18869 38030 ft 519 kts 50°
2026-04-21 13:31 28.20545 129.23152 38356 ft 517 kts 50°
2026-04-21 13:31 28.22025 129.25331 38491 ft 517 kts 50°
2026-04-21 13:31 28.24221 129.28564 38673 ft 517 kts 50°
2026-04-21 13:32 28.26412 129.31793 38821 ft 517 kts 50°
2026-04-21 13:32 28.28609 129.35033 38956 ft 518 kts 50°
2026-04-21 13:32 28.33009 129.41529 39036 ft 520 kts 50°
2026-04-21 13:33 28.37409 129.48038 39049 ft 519 kts 50°
2026-04-21 13:33 28.41800 129.54540 39059 ft 519 kts 50°
2026-04-21 13:34 28.43799 129.57945 39035 ft 519 kts 63°
2026-04-21 13:34 28.45000 129.61789 39035 ft 516 kts 82°
2026-04-21 13:34 28.45737 129.69793 39058 ft 515 kts 86°
2026-04-21 13:35 28.46509 129.77919 39059 ft 520 kts 85°
2026-04-21 13:35 28.47383 129.86096 39054 ft 522 kts 84°
2026-04-21 13:36 28.48274 129.94311 39062 ft 524 kts 84°
2026-04-21 13:36 28.49150 130.02536 39055 ft 524 kts 85°
2026-04-21 13:37 28.50207 130.10705 39056 ft 524 kts 76°
2026-04-21 13:37 28.52837 130.18399 39069 ft 522 kts 61°
2026-04-21 13:38 28.56829 130.25263 39089 ft 520 kts 53°
2026-04-21 13:38 28.61023 130.31960 39072 ft 519 kts 53°
2026-04-21 13:39 28.65140 130.38697 39069 ft 519 kts 54°
2026-04-21 13:39 28.69222 130.45469 39066 ft 518 kts 54°
2026-04-21 13:40 28.73298 130.52232 39078 ft 518 kts 54°
2026-04-21 13:40 28.77373 130.58998 39072 ft 518 kts 54°
2026-04-21 13:41 28.81442 130.65769 39070 ft 518 kts 54°
2026-04-21 13:41 28.85502 130.72539 39089 ft 518 kts 54°
2026-04-21 13:42 28.89570 130.79333 39082 ft 518 kts 54°
2026-04-21 13:42 28.93636 130.86135 39078 ft 518 kts 54°
2026-04-21 13:43 28.97693 130.92933 39053 ft 519 kts 54°
2026-04-21 13:43 29.01720 130.99691 39077 ft 518 kts 54°
2026-04-21 13:44 29.05768 131.06495 39073 ft 518 kts 54°
2026-04-21 13:44 29.09810 131.13302 39048 ft 517 kts 54°
2026-04-21 13:45 29.13847 131.20113 39065 ft 516 kts 54°
2026-04-21 13:45 29.17898 131.26953 39063 ft 516 kts 55°
2026-04-21 13:46 29.21919 131.33756 39069 ft 516 kts 55°
2026-04-21 13:46 29.25910 131.40522 39081 ft 515 kts 55°
2026-04-21 13:47 29.29916 131.47323 39071 ft 515 kts 55°
2026-04-21 13:47 29.33926 131.54142 39068 ft 515 kts 55°
2026-04-21 13:48 29.37926 131.60956 39070 ft 515 kts 55°
2026-04-21 13:48 29.41919 131.67770 39085 ft 515 kts 55°
2026-04-21 13:49 29.45914 131.74602 39075 ft 515 kts 55°
2026-04-21 13:49 29.49897 131.81426 39067 ft 514 kts 55°
2026-04-21 13:50 29.53869 131.88242 39084 ft 514 kts 55°
2026-04-21 13:50 29.57845 131.95078 39062 ft 514 kts 55°
2026-04-21 13:51 29.61812 132.01910 39071 ft 513 kts 55°
2026-04-21 13:51 29.65809 132.08712 39071 ft 514 kts 52°
2026-04-21 13:52 29.70318 132.15141 39075 ft 518 kts 49°
2026-04-21 13:52 29.74956 132.21537 39087 ft 522 kts 49°
2026-04-21 13:53 29.79585 132.27973 39086 ft 523 kts 50°
2026-04-21 13:53 29.84218 132.34479 39087 ft 527 kts 50°
2026-04-21 13:54 29.88872 132.41041 39074 ft 531 kts 50°
2026-04-21 13:54 29.93548 132.47645 39094 ft 533 kts 49°
2026-04-21 13:55 29.98251 132.54293 39092 ft 535 kts 50°
2026-04-21 13:55 30.02958 132.60957 39087 ft 537 kts 50°
2026-04-21 13:56 30.07666 132.67634 39097 ft 536 kts 49°
2026-04-21 13:56 30.12373 132.74320 39085 ft 536 kts 49°
2026-04-21 13:57 30.17035 132.80953 39087 ft 535 kts 49°
2026-04-21 13:57 30.21712 132.87620 39095 ft 534 kts 49°
2026-04-21 13:58 30.26384 132.94289 39086 ft 533 kts 49°
2026-04-21 13:58 30.31040 133.00947 39088 ft 532 kts 49°
2026-04-21 13:59 30.35688 133.07606 39093 ft 531 kts 48°
2026-04-21 13:59 30.40325 133.14258 39087 ft 530 kts 48°
2026-04-21 14:00 30.44947 133.20905 39090 ft 530 kts 48°
2026-04-21 14:00 30.49568 133.27553 39089 ft 529 kts 48°
2026-04-21 14:01 30.54177 133.34198 39099 ft 529 kts 48°
2026-04-21 14:01 30.58788 133.40859 39112 ft 529 kts 47°
2026-04-21 14:02 30.63396 133.47527 39096 ft 529 kts 47°
2026-04-21 14:03 30.70297 133.57533 39098 ft 529 kts 48°
2026-04-21 14:03 30.74904 133.64228 39105 ft 530 kts 47°
2026-04-21 14:04 30.79511 133.70936 39099 ft 531 kts 47°
2026-04-21 14:04 30.84115 133.77646 39110 ft 531 kts 47°
2026-04-21 14:05 30.88726 133.84376 39091 ft 532 kts 47°
2026-04-21 14:05 30.93339 133.91123 39088 ft 533 kts 47°
2026-04-21 14:06 30.97923 133.97841 39096 ft 533 kts 47°
2026-04-21 14:06 31.02562 134.04651 39077 ft 533 kts 47°
2026-04-21 14:07 31.07143 134.11388 39088 ft 533 kts 47°
2026-04-21 14:07 31.11770 134.18207 39096 ft 533 kts 47°
2026-04-21 14:08 31.16341 134.24952 39069 ft 533 kts 47°
2026-04-21 14:08 31.20926 134.31730 39104 ft 532 kts 47°
2026-04-21 14:09 31.25510 134.38518 39079 ft 532 kts 47°
2026-04-21 14:09 31.30080 134.45299 39077 ft 531 kts 47°
2026-04-21 14:10 31.34641 134.52076 39094 ft 530 kts 47°
2026-04-21 14:10 31.39191 134.58850 39089 ft 529 kts 47°
2026-04-21 14:11 31.43735 134.65625 39074 ft 528 kts 47°
2026-04-21 14:11 31.48266 134.72396 39094 ft 528 kts 47°
2026-04-21 14:12 31.52791 134.79167 39086 ft 528 kts 47°
2026-04-21 14:12 31.57313 134.85946 39102 ft 527 kts 47°
2026-04-21 14:13 31.61829 134.92729 39088 ft 527 kts 47°
2026-04-21 14:13 31.66340 134.99517 39085 ft 527 kts 47°
2026-04-21 14:14 31.70844 135.06305 39082 ft 527 kts 46°
2026-04-21 14:14 31.74765 135.11733 39088 ft 523 kts 42°
2026-04-21 14:15 31.80479 135.19110 39086 ft 522 kts 42°
2026-04-21 14:15 31.84545 135.24356 39084 ft 522 kts 42°
2026-04-21 14:16 31.89417 135.30701 39086 ft 523 kts 42°
2026-04-21 14:16 31.94275 135.37070 39085 ft 523 kts 42°
2026-04-21 14:17 31.99916 135.44481 39082 ft 523 kts 42°
2026-04-21 14:17 32.03985 135.49831 39081 ft 523 kts 42°
2026-04-21 14:18 32.08838 135.56224 39090 ft 523 kts 42°
2026-04-21 14:18 32.13691 135.62624 39093 ft 524 kts 42°
2026-04-21 14:19 32.18515 135.69000 39087 ft 524 kts 42°
2026-04-21 14:19 32.23377 135.75436 39091 ft 525 kts 42°
2026-04-21 14:20 32.28234 135.81878 39097 ft 525 kts 42°
2026-04-21 14:20 32.33093 135.88333 39088 ft 526 kts 42°
2026-04-21 14:21 32.37953 135.94802 39083 ft 526 kts 42°
2026-04-21 14:21 32.42804 136.01267 39092 ft 526 kts 42°
2026-04-21 14:22 32.47671 136.07743 39085 ft 525 kts 42°
2026-04-21 14:22 32.52529 136.14199 39080 ft 525 kts 42°
2026-04-21 14:23 32.57387 136.20670 39093 ft 525 kts 42°
2026-04-21 14:23 32.62237 136.27145 39077 ft 525 kts 42°
2026-04-21 14:24 32.67088 136.33636 39084 ft 525 kts 42°
2026-04-21 14:24 32.71927 136.40122 39085 ft 526 kts 42°
2026-04-21 14:25 32.76775 136.46630 39083 ft 526 kts 42°
2026-04-21 14:25 32.81622 136.53149 39073 ft 526 kts 42°
2026-04-21 14:26 32.86460 136.59669 39083 ft 526 kts 42°
2026-04-21 14:26 32.91298 136.66199 39074 ft 526 kts 42°
2026-04-21 14:27 32.96103 136.72710 39073 ft 527 kts 42°
2026-04-21 14:27 33.00929 136.79272 39075 ft 527 kts 42°
2026-04-21 14:28 33.05756 136.85846 39069 ft 527 kts 42°
2026-04-21 14:28 33.10582 136.92428 39063 ft 527 kts 42°
2026-04-21 14:29 33.15405 136.99019 39080 ft 527 kts 42°
2026-04-21 14:29 33.20232 137.05627 39066 ft 529 kts 42°
2026-04-21 14:30 33.25070 137.12260 39066 ft 530 kts 42°
2026-04-21 14:30 33.29909 137.18898 39065 ft 530 kts 42°
2026-04-21 14:31 33.34755 137.25558 39066 ft 531 kts 42°
2026-04-21 14:31 33.39601 137.32232 39065 ft 531 kts 42°
2026-04-21 14:32 33.44448 137.38921 39057 ft 531 kts 42°
2026-04-21 14:32 33.49284 137.45608 39074 ft 531 kts 42°
2026-04-21 14:33 33.54121 137.52309 39059 ft 531 kts 42°
2026-04-21 14:33 33.58944 137.59009 39060 ft 532 kts 43°
2026-04-21 14:34 33.63242 137.66323 39053 ft 543 kts 56°
2026-04-21 14:34 33.66841 137.74299 39076 ft 544 kts 57°
2026-04-21 14:35 33.70404 137.82321 39069 ft 545 kts 56°
2026-04-21 14:35 33.74069 137.90356 38385 ft 556 kts 56°
2026-04-21 14:35 33.75932 137.94426 37768 ft 554 kts 56°
2026-04-21 14:36 33.77781 137.98484 37147 ft 552 kts 56°
2026-04-21 14:36 33.79615 138.02519 36702 ft 547 kts 56°
2026-04-21 14:36 33.81419 138.06502 36334 ft 540 kts 56°
2026-04-21 14:36 33.83209 138.10453 35950 ft 535 kts 56°
2026-04-21 14:37 33.84979 138.14363 35578 ft 530 kts 56°
2026-04-21 14:37 33.86734 138.18239 35189 ft 525 kts 56°
2026-04-21 14:37 33.88470 138.22077 34812 ft 521 kts 56°
2026-04-21 14:37 33.90195 138.25894 34436 ft 517 kts 56°
2026-04-21 14:38 33.91904 138.29685 34063 ft 514 kts 56°
2026-04-21 14:38 33.93594 138.33460 33638 ft 510 kts 56°
2026-04-21 14:38 33.95266 138.37210 33236 ft 506 kts 56°
2026-04-21 14:38 33.96920 138.40929 32847 ft 502 kts 56°
2026-04-21 14:39 33.98562 138.44621 32495 ft 498 kts 56°
2026-04-21 14:39 34.00189 138.48283 32131 ft 494 kts 56°
2026-04-21 14:39 34.01800 138.51909 31770 ft 490 kts 55°
2026-04-21 14:39 34.03402 138.55516 31396 ft 486 kts 55°
2026-04-21 14:40 34.04992 138.59098 31043 ft 483 kts 55°
2026-04-21 14:40 34.06568 138.62656 30681 ft 479 kts 55°
2026-04-21 14:40 34.08114 138.66146 30334 ft 476 kts 55°
2026-04-21 14:40 34.09670 138.69662 29953 ft 474 kts 55°
2026-04-21 14:41 34.11213 138.73154 29541 ft 471 kts 55°
2026-04-21 14:41 34.12752 138.76638 29115 ft 468 kts 55°
2026-04-21 14:41 34.14278 138.80099 28718 ft 466 kts 55°
2026-04-21 14:41 34.15793 138.83538 28331 ft 463 kts 56°
2026-04-21 14:42 34.17301 138.86964 27952 ft 461 kts 56°
2026-04-21 14:42 34.18802 138.90377 27561 ft 459 kts 56°
2026-04-21 14:42 34.20294 138.93774 27166 ft 457 kts 56°
2026-04-21 14:42 34.21776 138.97161 26783 ft 455 kts 56°
2026-04-21 14:43 34.23241 139.00545 26393 ft 454 kts 57°
2026-04-21 14:43 34.24694 139.03913 26008 ft 452 kts 57°
2026-04-21 14:43 34.26147 139.07279 25625 ft 451 kts 57°
2026-04-21 14:43 34.27597 139.10637 25267 ft 450 kts 57°
2026-04-21 14:44 34.28977 139.14031 24848 ft 452 kts 62°
2026-04-21 14:44 34.30208 139.17528 24467 ft 452 kts 63°
2026-04-21 14:44 34.31412 139.21041 24071 ft 452 kts 63°
2026-04-21 14:44 34.32608 139.24553 23687 ft 451 kts 64°
2026-04-21 14:45 34.33803 139.28055 23233 ft 450 kts 64°
2026-04-21 14:45 34.35000 139.31549 22818 ft 448 kts 64°
2026-04-21 14:45 34.36194 139.35022 22427 ft 446 kts 63°
2026-04-21 14:45 34.37386 139.38487 22038 ft 444 kts 63°
2026-04-21 14:46 34.38571 139.41928 21649 ft 442 kts 64°
2026-04-21 14:46 34.39749 139.45352 21276 ft 440 kts 64°
2026-04-21 14:46 34.40919 139.48758 20906 ft 438 kts 64°
2026-04-21 14:46 34.42085 139.52154 20537 ft 436 kts 64°
2026-04-21 14:47 34.43246 139.55542 20175 ft 434 kts 64°
2026-04-21 14:47 34.44398 139.58907 19799 ft 432 kts 64°
2026-04-21 14:47 34.45550 139.62274 19422 ft 431 kts 64°
2026-04-21 14:47 34.46693 139.65618 19043 ft 430 kts 64°
2026-04-21 14:48 34.47925 139.68883 18633 ft 422 kts 55°
2026-04-21 14:48 34.49646 139.71703 18246 ft 412 kts 41°
2026-04-21 14:48 34.51742 139.74011 17792 ft 403 kts 30°
2026-04-21 14:48 34.54070 139.75777 17373 ft 392 kts 23°
2026-04-21 14:49 34.56429 139.77434 16964 ft 391 kts 24°
2026-04-21 14:49 34.58774 139.79108 16545 ft 390 kts 24°
2026-04-21 14:49 34.61106 139.80795 16132 ft 390 kts 25°
2026-04-21 14:49 34.63427 139.82490 15720 ft 389 kts 25°
2026-04-21 14:50 34.64959 139.83613 15448 ft 388 kts 25°
2026-04-21 14:50 34.68079 139.85692 14864 ft 375 kts 14°
2026-04-21 14:50 34.70559 139.86250 14448 ft 355 kts 358°
2026-04-21 14:50 34.73020 139.86494 14063 ft 355 kts 360°
2026-04-21 14:51 34.77992 139.87156 13107 ft 358 kts
2026-04-21 14:51 34.80462 139.87509 12645 ft 358 kts
2026-04-21 14:51 34.82940 139.87866 12180 ft 359 kts
2026-04-21 14:52 34.85420 139.88224 11708 ft 358 kts
2026-04-21 14:52 34.87891 139.88580 11277 ft 358 kts
2026-04-21 14:52 34.90366 139.88936 10833 ft 358 kts
2026-04-21 14:52 34.92841 139.89292 10423 ft 357 kts
2026-04-21 14:53 34.95233 139.89443 10251 ft 331 kts 349°
2026-04-21 14:53 34.97386 139.88783 10129 ft 311 kts 340°
2026-04-21 14:53 34.99442 139.88064 9950 ft 305 kts 342°
2026-04-21 14:53 35.01483 139.87403 9728 ft 300 kts 342°
2026-04-21 14:54 35.03492 139.86765 9465 ft 296 kts 343°
2026-04-21 14:54 35.05447 139.86146 9373 ft 285 kts 343°
2026-04-21 14:54 35.07331 139.85551 9228 ft 273 kts 343°
2026-04-21 14:54 35.09138 139.84980 8749 ft 265 kts 343°
2026-04-21 14:55 35.10914 139.84416 8144 ft 263 kts 343°
2026-04-21 14:55 35.12685 139.83855 7571 ft 261 kts 343°
2026-04-21 14:55 35.14407 139.83309 7238 ft 250 kts 343°
2026-04-21 14:55 35.16055 139.82787 6928 ft 242 kts 343°
2026-04-21 14:56 35.17706 139.82263 6663 ft 254 kts 344°
2026-04-21 14:56 35.19461 139.81704 6341 ft 265 kts 344°
2026-04-21 14:56 35.21253 139.81135 5990 ft 266 kts 345°
2026-04-21 14:56 35.23046 139.80567 5669 ft 266 kts 345°
2026-04-21 14:57 35.24833 139.80000 5343 ft 265 kts 345°
2026-04-21 14:57 35.26620 139.79432 5020 ft 265 kts 345°
2026-04-21 14:57 35.28378 139.78873 4671 ft 255 kts 346°
2026-04-21 14:57 35.30044 139.78346 4360 ft 240 kts 347°
2026-04-21 14:58 35.31135 139.78200 4170 ft 239 kts
2026-04-21 14:58 35.33172 139.79193 3840 ft 237 kts 31°
2026-04-21 14:58 35.34055 139.79964 3653 ft 236 kts 34°
2026-04-21 14:58 35.35349 139.81159 3437 ft 224 kts 34°
2026-04-21 14:59 35.36549 139.82267 3329 ft 210 kts 33°
2026-04-21 14:59 35.37692 139.83313 3225 ft 200 kts 33°
2026-04-21 14:59 35.38781 139.84303 3142 ft 191 kts 33°
2026-04-21 14:59 35.40200 139.85588 3042 ft 190 kts 33°
2026-04-21 15:00 35.40910 139.86230 2885 ft 192 kts 32°
2026-04-21 15:00 35.42076 139.86845 2617 ft 180 kts
2026-04-21 15:00 35.43292 139.86831 2426 ft 172 kts
2026-04-21 15:00 35.44471 139.86789 2187 ft 169 kts 349°
2026-04-21 15:01 35.45518 139.86241 2039 ft 159 kts 336°
2026-04-21 15:01 35.46511 139.85704 1797 ft 154 kts 338°
2026-04-21 15:01 35.47459 139.85106 1587 ft 154 kts 334°
2026-04-21 15:01 35.48394 139.84455 1382 ft 155 kts 333°
2026-04-21 15:02 35.49596 139.83605 1119 ft 142 kts 333°
2026-04-21 15:02 35.50160 139.83206 1014 ft 142 kts 332°
2026-04-21 15:02 35.51022 139.82596 808 ft 145 kts 333°
2026-04-21 15:02 35.51905 139.81970 605 ft 147 kts 333°
2026-04-21 15:03 35.52792 139.81344 406 ft 147 kts 333°
2026-04-21 15:03 35.53673 139.80719 201 ft 146 kts 333°
2026-04-21 15:03 35.54546 139.80092 40 ft 144 kts 333°
2026-04-21 15:03 35.55305 139.79568 32 ft 101 kts 329°
2026-04-21 15:04 35.55759 139.79245 32 ft 57 kts 330°
2026-04-21 15:04 35.56040 139.79023 31 ft 42 kts 312°
2026-04-21 15:04 35.56144 139.78833 27 ft 16 kts 279°
2026-04-21 15:04 35.56083 139.78766 28 ft 13 kts 167°
2026-04-21 15:05 35.56001 139.78818 29 ft 13 kts 149°
2026-04-21 15:05 35.55787 139.78970 30 ft 17 kts 150°
2026-04-21 15:05 35.55683 139.79043 30 ft 17 kts 150°
2026-04-21 15:06 35.55580 139.79117 30 ft 17 kts 150°
2026-04-21 15:06 35.55508 139.79146 29 ft 9 kts 198°
2026-04-21 15:06 35.55469 139.79081 30 ft 10 kts 240°
2026-04-21 15:06 35.55435 139.79011 31 ft 10 kts 239°
2026-04-21 15:07 35.55412 139.78964 31 ft 10 kts 239°
2026-04-21 15:07 35.55337 139.78940 32 ft 10 kts 154°
2026-04-21 15:07 35.55278 139.78980 32 ft 10 kts 150°
2026-04-21 15:07 35.55240 139.78972 31 ft 6 kts 228°
2026-04-21 15:08 35.55218 139.78926 31 ft 5 kts 240°
2026-04-21 15:08 35.55214 139.78917 32 ft 0 kts 240°